Theta_e
313 312 312 311 310 310 309 308 306 305 305 298 299 300 293 293 293 304 307 308 304 292 284 287 286 290 290 295 297 297 296 294 295 294 294 292 291 289 290 290 290 288 289 288 287 284 284 286 285 286 287 287 291 293 295 294 292 288 286 289 291 301 282 281 283 287 288 289 290 292 290 289 285 283 283 284 282 284 278 277 277 276 278 276 273 272 276
312 312 312 311 310 310 310 308 306 305 304 300 300 291 290 291 293 298 306 306 301 294 287 287 285 286 293 293 295 298 296 294 293 292 291 290 291 290 289 291 292 290 289 287 287 287 281 288 288 286 289 289 294 295 295 295 292 291 288 285 292 284 281 282 275 274 276 278 279 282 285 284 281 282 281 283 283 284 281 281 278 277 278 276 275 269 276
312 312 312 311 310 310 309 308 307 305 305 304 297 293 293 292 295 295 300 303 300 295 289 287 284 286 289 291 291 292 293 293 294 293 292 293 290 290 289 290 291 289 290 288 289 290 287 283 289 289 290 289 295 295 296 295 292 291 297 302 293 283 281 277 270 270 269 266 264 269 272 277 279 280 280 283 283 282 282 278 276 276 277 278 275 274 284
312 312 312 311 310 309 309 308 306 306 305 305 301 297 297 293 289 290 295 295 297 295 295 292 290 288 290 288 291 293 290 294 295 293 292 292 293 290 291 291 289 288 289 286 285 288 290 288 285 289 287 287 292 294 295 295 293 302 306 299 291 282 282 279 277 275 271 268 272 277 283 277 276 280 280 281 280 281 281 279 276 275 275 276 277 280 284
312 312 311 311 310 309 308 307 306 305 305 305 302 298 296 294 290 285 291 290 291 292 289 293 293 291 290 286 291 291 290 291 293 295 290 295 293 289 290 291 290 287 287 284 285 286 288 288 288 287 287 288 291 294 294 296 303 306 301 298 286 280 278 282 280 279 279 277 281 283 283 280 279 280 281 281 280 280 280 278 276 279 279 274 280 283 282
312 312 311 311 310 309 308 307 306 305 305 304 302 296 296 292 290 290 292 291 285 290 287 291 292 293 293 289 292 291 291 291 288 294 296 295 292 289 288 291 291 287 288 285 282 284 284 285 285 287 289 288 291 293 295 293 300 300 293 293 285 279 277 283 283 283 283 283 283 284 283 282 282 281 281 281 280 280 279 279 280 279 275 275 282 283 281
312 312 311 311 310 309 308 308 307 306 305 305 300 293 291 295 292 292 295 290 286 287 291 294 293 291 292 287 291 290 291 289 291 291 292 290 290 289 283 285 288 290 288 286 283 283 280 280 284 285 286 287 286 286 291 294 291 291 289 289 286 282 280 283 282 282 281 282 283 286 285 283 282 282 281 282 281 281 281 281 281 280 279 280 284 283 284
311 311 311 311 310 309 309 308 307 305 305 303 298 294 293 291 292 292 291 291 292 289 291 292 291 290 293 290 290 290 289 289 292 292 290 284 289 291 288 287 289 288 287 284 284 286 286 287 283 287 287 286 286 287 286 286 290 290 290 289 289 286 277 288 279 277 279 281 283 284 286 285 283 282 283 281 281 282 281 281 282 282 281 280 281 280 282
311 311 311 311 310 310 309 308 307 305 305 299 298 297 296 295 296 295 293 290 287 292 290 291 289 289 288 289 290 293 292 290 291 292 292 290 288 290 288 288 289 289 287 286 288 289 289 288 291 289 289 287 288 287 288 291 288 287 287 287 288 283 280 282 281 278 277 281 282 283 285 285 283 281 282 282 282 280 282 281 282 281 280 280 279 279 279
311 311 311 311 311 310 309 308 307 305 306 300 298 297 302 299 298 296 290 286 292 292 289 287 288 287 287 291 291 292 293 293 291 287 292 294 295 294 292 289 290 287 287 288 290 292 291 292 293 293 293 292 290 292 292 291 291 286 285 286 288 281 283 278 276 277 274 281 281 283 283 279 274 274 281 281 280 281 282 283 286 284 282 277 275 276 281
310 310 310 311 311 310 309 308 307 306 303 298 298 300 303 299 296 293 288 290 287 287 288 287 287 291 291 295 295 296 294 294 291 288 285 294 294 295 294 292 289 283 286 291 295 296 295 295 294 295 294 294 293 291 292 294 292 289 286 282 283 285 283 277 278 276 273 281 280 281 275 270 272 281 284 284 284 283 281 282 283 285 282 278 279 281 283
310 310 310 310 311 310 310 308 308 306 304 302 304 302 304 305 300 290 284 286 283 284 289 287 289 291 293 296 295 294 292 290 291 292 290 292 295 294 291 287 287 285 290 294 296 296 297 297 295 295 295 291 293 293 291 292 292 292 288 286 282 283 279 277 278 274 275 279 277 273 270 271 280 283 285 287 286 286 283 283 283 284 285 286 285 285 286
309 310 310 310 310 310 310 309 308 306 305 304 303 300 303 305 300 292 287 286 283 284 288 288 291 293 293 293 293 294 294 293 294 294 295 294 292 293 292 290 289 292 297 294 293 292 290 288 286 284 289 288 289 290 291 290 291 290 288 288 286 280 278 276 277 273 276 276 273 271 271 278 282 284 286 288 286 284 284 281 284 285 287 286 284 286 287
309 310 310 310 310 310 310 309 308 307 306 305 301 302 303 303 300 295 287 285 286 286 289 290 291 292 294 293 292 293 291 293 290 292 292 293 292 291 293 293 294 294 296 295 291 288 285 279 277 278 285 283 282 286 290 289 290 290 289 288 288 287 281 279 278 280 276 275 277 277 279 279 281 283 285 285 281 282 280 275 278 284 286 286 285 286 287
309 309 310 310 310 310 310 309 308 307 306 305 301 301 302 302 301 300 295 289 284 283 287 286 284 289 291 293 294 290 289 287 290 290 290 291 293 293 294 296 296 297 294 294 287 284 282 280 280 277 279 278 276 278 283 287 287 289 290 289 288 288 284 280 280 276 274 274 270 270 267 267 272 279 283 286 287 286 284 283 278 282 285 287 288 286 287
309 309 309 310 310 310 310 309 308 307 307 306 302 301 302 304 303 302 297 287 283 286 285 294 291 292 292 292 293 291 287 285 288 285 285 285 289 292 295 295 297 296 294 288 283 280 280 283 276 273 275 276 280 280 280 283 286 287 288 287 287 285 285 282 279 276 274 274 273 268 271 272 274 280 283 286 286 286 282 280 276 281 285 287 289 288 287
309 309 309 310 310 310 310 309 308 307 307 306 301 301 300 305 301 300 299 294 291 285 288 293 295 293 290 293 292 292 288 286 286 288 283 285 290 290 292 294 294 295 290 287 281 284 282 277 278 276 278 280 280 279 284 281 279 281 286 287 285 283 279 280 277 276 274 269 272 271 270 273 283 282 282 283 287 286 282 271 268 279 285 288 289 289 288
309 309 309 309 310 310 309 309 308 307 307 306 302 299 299 304 303 302 298 291 287 286 288 294 295 291 290 288 289 292 291 290 290 288 284 286 287 290 292 292 292 293 295 287 281 278 276 276 279 277 278 282 284 283 276 278 277 276 280 282 282 281 279 278 279 273 276 277 271 270 273 280 282 283 284 286 286 284 273 270 276 280 284 288 290 289 290
309 309 309 309 309 310 309 309 308 307 307 306 303 301 300 302 303 303 296 290 288 286 290 294 298 294 295 297 295 294 294 293 289 286 284 284 290 292 295 295 293 289 287 282 282 279 279 278 281 277 278 280 285 279 281 280 276 280 280 280 281 279 277 276 274 272 272 275 275 275 275 279 286 286 287 287 286 274 269 281 282 284 286 288 291 290 289
309 309 309 309 309 309 309 309 308 308 307 306 303 297 297 300 304 304 302 294 287 288 291 294 298 297 298 297 294 293 293 292 286 283 281 282 288 291 290 288 288 288 287 286 285 281 281 279 278 281 279 276 279 284 279 280 281 281 281 280 276 278 277 275 275 276 275 268 271 270 273 283 288 289 287 288 278 279 282 282 287 287 288 289 289 290 290
309 309 309 309 309 310 309 309 308 308 307 306 304 299 298 299 302 304 302 293 289 290 292 295 299 298 298 298 298 299 294 295 291 290 288 285 290 284 279 278 284 287 284 284 282 281 281 280 280 281 282 280 285 285 279 276 279 285 286 282 282 280 280 275 274 278 273 274 272 273 278 281 290 291 283 285 287 284 285 289 288 288 288 290 290 289 289
309 309 309 309 309 310 309 309 308 308 307 306 305 301 297 300 302 304 304 301 296 289 288 296 300 300 302 303 302 301 300 298 296 297 291 288 290 291 285 284 284 287 288 285 283 283 286 284 283 282 281 281 284 281 280 276 276 281 285 284 280 283 283 279 282 282 276 274 274 278 280 286 292 291 288 288 291 288 289 290 291 290 288 289 291 292 290
308 309 309 309 309 310 309 309 308 307 307 306 305 300 296 296 299 305 305 300 298 297 295 294 296 299 302 303 306 306 306 306 301 297 295 290 289 288 289 291 291 292 293 290 289 284 283 285 282 282 283 281 280 279 282 281 275 280 281 286 286 288 286 284 286 284 284 284 286 287 288 286 289 292 289 287 288 288 289 291 290 290 291 291 292 291 291
308 308 309 309 309 310 309 308 308 307 307 307 305 301 299 300 301 303 301 297 296 289 292 289 295 290 295 298 301 302 303 302 303 302 299 300 289 286 289 292 296 293 291 291 290 291 285 285 286 285 283 283 284 279 278 277 277 280 283 284 284 285 286 287 286 284 283 282 285 287 288 287 289 292 291 290 289 290 290 290 291 291 291 291 292 292 292
308 308 309 309 309 309 309 308 307 307 306 306 305 305 305 303 303 301 301 293 290 288 288 282 286 299 300 299 302 300 302 305 304 304 301 300 298 292 292 295 296 296 293 293 290 290 284 286 287 285 283 285 289 282 283 282 281 282 281 280 282 286 288 287 284 284 283 283 285 285 287 288 289 290 291 291 291 291 291 292 292 291 292 293 293 291 290
308 308 309 309 309 309 309 308 307 306 306 306 305 302 300 301 303 300 297 293 288 287 286 286 289 295 298 301 300 301 302 304 304 303 302 302 302 301 296 298 298 295 293 292 294 290 283 283 279 279 284 285 289 283 280 284 284 285 284 281 283 287 292 282 284 285 284 285 286 287 288 289 290 289 290 292 292 292 292 292 291 292 292 292 291 291 292
308 308 308 309 309 309 309 308 307 306 306 306 305 304 303 303 305 302 298 296 294 287 285 286 289 292 298 297 301 302 302 302 303 302 302 302 301 298 298 296 295 294 294 290 287 282 282 281 283 286 285 285 287 285 282 287 284 282 281 283 287 288 285 285 286 283 279 285 287 288 285 282 286 290 292 293 292 293 292 291 291 291 291 291 292 291 290
308 308 308 308 309 309 308 307 307 306 306 306 305 305 305 303 304 305 303 299 296 284 281 277 284 292 296 295 299 300 300 302 302 302 301 300 299 299 298 296 292 294 290 291 291 290 284 285 286 280 281 283 287 285 286 286 285 283 283 284 288 287 288 285 280 279 281 286 288 290 290 287 290 292 292 294 293 292 292 292 293 293 293 293 293 292 290
308 308 308 308 309 308 308 307 306 306 306 306 304 303 303 304 305 306 306 303 293 287 283 285 288 288 288 294 299 298 298 302 301 301 300 299 299 297 297 296 296 290 287 284 281 281 281 282 280 284 288 288 287 282 284 282 279 281 283 284 287 290 290 292 290 287 288 288 289 290 290 292 291 291 291 292 293 294 294 294 294 295 294 293 293 294 294
308 308 308 308 308 308 308 307 306 306 306 305 302 298 294 297 303 304 305 305 300 291 291 286 284 284 290 294 295 296 297 299 299 299 299 298 297 296 297 296 292 291 289 286 285 287 282 282 281 283 286 291 288 280 282 278 279 282 284 284 289 288 289 291 291 292 291 292 290 291 293 294 292 291 292 292 294 295 294 294 294 294 293 293 293 293 293
307 308 308 308 308 308 307 306 306 306 305 302 299 290 289 288 298 305 306 306 303 295 284 286 286 284 288 290 295 296 295 297 295 297 297 297 297 296 295 294 291 293 290 288 289 286 280 284 280 288 287 290 285 280 279 280 277 279 284 286 288 290 290 292 292 293 293 292 291 292 292 293 292 292 293 291 292 295 295 294 297 299 296 294 293 294 295
307 308 308 308 307 307 306 306 306 306 304 301 297 293 293 294 296 304 307 306 302 297 289 286 283 284 284 287 290 296 296 297 295 293 292 293 294 293 294 297 294 292 290 284 285 285 284 279 284 286 288 291 291 282 280 281 280 286 286 287 288 289 289 290 291 292 292 292 293 292 291 292 290 295 295 294 294 294 295 296 296 295 300 297 294 294 294
307 307 307 307 307 306 306 306 306 305 302 304 307 307 306 305 305 306 307 304 300 291 286 284 283 282 281 286 292 296 295 294 294 292 292 291 293 292 292 290 290 293 300 290 285 285 282 279 282 286 288 288 285 279 283 283 287 288 287 290 289 290 290 291 291 291 291 291 294 292 290 292 294 295 297 294 293 294 294 295 295 293 293 293 294 294 293
307 307 307 307 306 306 306 306 306 305 305 303 299 300 302 306 306 307 306 302 296 290 285 285 282 281 284 287 290 294 296 291 289 291 287 292 291 292 286 288 288 288 288 289 285 284 285 284 282 280 284 286 282 281 283 287 290 290 289 290 290 290 289 290 290 291 292 292 293 295 296 294 294 294 294 294 293 292 294 294 293 293 292 293 294 295 295
307 307 306 306 306 306 306 305 303 301 298 299 300 302 303 307 307 307 304 299 295 292 291 288 283 279 281 281 280 284 293 292 289 290 289 289 291 291 288 287 286 287 287 288 283 281 281 286 286 283 284 280 281 282 285 289 287 287 288 289 290 289 290 290 291 293 293 291 292 294 295 293 294 293 294 294 294 293 293 293 293 293 292 293 294 294 293
306 306 306 306 306 306 304 303 302 299 298 298 300 305 307 308 307 305 303 300 296 289 287 287 285 282 281 278 279 288 294 292 289 287 287 287 290 288 284 282 284 287 288 287 280 281 283 287 286 282 281 280 284 286 288 287 288 288 289 290 291 291 292 292 292 289 289 289 291 292 292 291 293 294 294 294 293 292 293 293 292 292 293 293 293 293 291
306 306 306 306 304 300 296 294 301 301 299 304 306 308 308 307 306 305 301 299 299 297 291 286 283 284 284 282 279 281 290 286 286 284 289 286 286 281 284 284 283 283 284 282 279 280 286 288 283 279 278 282 285 286 290 290 289 290 289 290 292 292 292 292 292 291 292 291 291 291 292 292 292 292 292 293 293 292 291 293 293 293 293 293 294 293 293
305 306 303 299 297 290 290 293 299 305 308 307 307 304 302 299 293 290 292 292 291 298 287 290 286 287 286 285 285 291 290 285 285 285 285 282 285 286 281 284 283 285 281 278 283 289 284 285 282 282 283 287 290 289 289 290 291 292 292 292 292 292 293 293 292 292 290 289 289 289 290 289 291 291 292 292 292 292 294 295 295 295 295 295 295 295 292
304 302 299 298 293 289 290 296 307 308 307 304 302 293 290 289 289 290 289 290 288 288 288 291 289 290 287 286 287 291 290 285 285 283 284 287 286 283 283 283 284 284 277 278 283 290 283 280 277 278 283 285 286 291 293 292 292 292 293 293 294 293 293 292 293 294 293 292 293 292 294 293 292 293 292 293 292 293 293 293 293 294 295 295 294 292 292
300 296 293 292 290 292 302 307 308 305 301 293 291 289 288 289 288 286 289 287 287 287 289 286 291 290 292 291 289 288 289 287 282 280 282 283 287 283 282 282 282 281 277 275 278 285 281 277 276 277 283 285 289 292 292 291 292 293 293 293 293 293 292 293 293 294 294 294 294 293 292 293 293 294 293 293 293 292 291 291 293 293 294 294 294 293 293
298 297 295 292 298 302 303 305 304 299 291 289 289 289 287 286 288 288 287 285 285 286 289 287 288 288 289 289 288 288 291 291 287 286 285 285 287 284 282 281 282 282 276 275 279 283 279 277 275 277 283 284 285 290 291 290 291 293 293 293 292 293 292 293 293 293 293 294 293 292 292 293 293 294 294 293 293 293 294 293 292 293 293 292 292 292 294
299 299 300 304 304 304 303 299 291 289 289 290 287 285 287 287 288 286 287 284 284 284 284 287 285 287 288 292 292 292 290 292 287 283 285 285 287 284 279 279 281 279 276 279 282 280 278 278 274 275 282 286 288 288 288 289 290 290 292 291 292 292 292 292 293 293 294 294 294 294 293 292 292 292 292 293 293 293 293 293 293 292 293 294 294 293 293
305 305 305 300 297 293 289 289 290 289 286 285 285 283 286 284 285 285 285 286 288 286 283 291 289 292 292 295 290 290 288 290 291 286 286 285 285 282 280 279 277 277 277 280 281 277 276 275 272 282 287 286 287 287 288 290 290 290 290 289 290 291 293 293 293 293 293 294 294 294 293 292 292 293 293 294 293 292 291 292 294 294 293 293 293 293 293
304 303 296 291 290 290 291 284 289 287 285 286 285 281 283 282 284 285 281 282 284 285 288 288 289 290 286 291 289 288 290 291 288 285 287 283 283 281 281 278 277 280 282 281 277 276 277 275 283 288 286 285 288 287 288 289 289 289 290 290 290 290 291 292 292 292 292 292 292 292 291 291 291 291 292 292 294 294 294 293 292 293 292 292 291 293 294
295 291 290 289 286 289 287 282 289 286 282 284 286 285 284 281 284 285 284 285 288 288 290 290 291 289 287 289 287 286 286 286 287 287 285 284 282 279 279 279 276 280 281 277 274 274 275 281 283 283 284 285 288 289 288 289 289 290 292 291 291 291 292 293 293 294 294 294 294 292 292 291 291 292 292 293 293 294 295 295 293 292 292 293 293 293 293
291 290 289 285 283 286 286 284 284 282 285 286 286 287 287 284 285 286 288 289 287 287 289 290 291 290 288 288 286 286 282 283 285 285 282 283 281 280 280 281 281 281 275 274 274 278 282 286 282 284 286 288 289 289 287 289 289 290 292 293 293 292 292 294 294 294 295 294 292 293 293 292 293 293 293 294 293 292 293 293 293 294 294 292 293 294 295
290 290 287 287 285 286 287 283 283 286 288 289 290 287 288 287 289 291 290 291 290 291 292 293 292 292 289 286 286 285 282 283 286 285 283 283 281 283 284 283 280 276 275 274 274 277 280 284 285 287 288 288 288 288 288 289 289 290 293 293 292 293 292 293 293 294 294 292 292 293 292 293 292 293 293 293 292 292 292 292 292 292 293 294 295 295 294
287 289 288 284 283 285 283 285 289 287 287 288 289 290 290 290 290 289 292 292 293 294 292 292 290 289 289 288 286 284 284 284 285 285 284 285 284 282 281 280 278 276 276 278 282 280 280 281 282 286 288 288 289 288 288 289 289 290 292 293 292 292 292 292 292 293 292 293 293 294 293 292 293 292 293 294 293 293 293 293 293 291 292 292 292 292 292
290 288 286 285 286 285 286 287 288 287 288 289 290 291 290 290 290 292 293 292 292 292 293 291 285 286 285 285 285 285 285 285 283 283 283 283 283 281 280 276 275 279 279 280 282 281 285 289 287 286 287 287 287 289 289 290 291 291 292 293 294 294 293 293 294 294 292 293 293 293 294 293 292 292 291 292 292 294 294 293 293 293 293 294 294 294 293
289 287 288 286 285 285 287 290 288 286 286 287 288 289 291 290 290 293 295 294 293 293 290 290 288 286 286 285 283 284 284 283 284 283 282 282 281 279 279 278 278 277 275 279 280 282 285 286 285 286 287 288 288 289 289 290 289 291 292 294 294 293 294 294 293 292 292 293 293 294 293 291 292 292 293 294 294 293 294 294 295 295 295 294 294 293 293
289 288 287 289 286 285 287 285 285 285 285 286 288 289 291 290 291 292 295 295 294 291 288 286 286 285 285 284 283 283 285 284 283 281 281 282 280 278 280 283 284 281 281 283 287 289 289 287 286 287 287 288 288 289 290 291 291 292 293 293 293 293 293 292 293 293 292 293 292 290 292 293 294 294 295 293 293 294 295 294 293 293 293 292 292 293 293
288 286 286 288 290 290 290 288 287 286 286 288 289 291 292 290 292 294 297 297 294 291 289 286 286 285 285 285 285 285 285 284 282 279 280 281 280 284 284 287 287 283 283 283 285 287 287 288 288 288 289 290 291 291 291 291 291 290 291 291 292 292 292 292 292 293 293 291 291 293 294 293 292 291 291 292 292 293 294 295 294 292 291 292 292 293 294
Wind_Speed
11 10 9 7 6 5 2 2 3 6 9 4 4 2 2 1 2 3 3 3 3 3 1 2 2 1 2 3 2 1 0 2 1 2 0 0 1 1 1 2 1 2 1 0 0 2 0 2 1 1 1 3 7 5 5 4 3 3 1 2 1 2 2 2 2 3 3 4 3 3 4 2 1 1 1 2 1 0 2 1 3 3 0 1 1 0 3
11 11 9 8 7 6 4 5 3 3 8 2 3 2 1 1 2 3 1 3 3 2 1 1 2 4 5 1 3 2 1 2 1 0 1 2 0 1 1 1 2 0 1 1 1 2 0 1 1 1 1 2 6 5 6 3 1 1 2 2 1 0 1 3 1 3 6 6 3 2 2 4 3 1 2 1 1 0 2 2 1 1 3 4 5 2 3
11 10 10 9 8 7 6 6 4 3 5 3 1 1 1 2 2 2 6 5 3 1 3 2 1 2 1 2 3 2 0 2 2 3 2 0 2 2 1 1 2 1 0 1 0 0 0 1 1 0 1 3 3 6 2 5 1 2 3 3 4 4 0 1 1 1 2 2 2 2 3 2 3 0 3 2 3 1 0 1 0 1 0 3 3 2 3
12 11 10 10 9 8 7 7 5 4 5 4 3 1 1 1 1 3 2 5 3 3 1 1 2 1 1 2 2 0 1 1 1 3 0 2 2 1 2 1 3 2 1 1 1 0 0 0 1 1 1 2 2 2 5 3 1 1 8 3 3 2 1 2 4 4 5 3 3 3 0 1 3 4 2 4 1 1 2 3 2 2 2 2 4 4 5
12 11 11 10 10 9 9 8 7 5 6 5 3 1 0 0 0 0 1 3 3 1 3 1 1 2 1 0 1 1 2 1 1 2 1 0 1 1 1 0 1 1 2 1 0 0 1 2 0 2 1 2 3 6 3 4 1 10 5 3 4 2 3 2 2 2 4 3 0 1 2 0 2 1 3 3 3 1 1 2 2 2 4 3 1 4 7
11 11 11 11 10 10 10 9 8 8 7 7 2 1 0 0 2 1 1 2 1 1 3 2 0 1 0 2 0 1 0 0 1 1 1 2 1 2 1 1 0 4 5 3 1 1 1 1 0 1 1 1 4 2 4 3 4 3 1 2 2 3 1 2 1 1 2 2 3 2 1 1 1 1 1 2 3 2 1 2 2 3 1 4 3 5 5
11 11 11 11 11 11 12 10 9 10 8 5 1 1 2 1 2 2 1 1 3 2 1 1 2 2 3 1 0 1 1 3 3 1 0 2 0 2 1 3 3 2 2 2 1 1 0 2 1 2 1 0 2 2 2 1 4 4 2 2 1 4 1 0 0 1 2 2 0 0 1 0 0 2 1 1 0 1 0 1 1 3 1 3 7 5 5
10 11 11 11 12 12 13 12 11 11 10 4 3 2 1 1 1 1 2 2 0 1 0 1 1 1 1 2 3 3 2 2 1 1 2 0 0 1 1 2 2 4 4 3 2 6 7 3 2 2 2 0 0 0 2 1 2 2 0 0 0 2 1 1 1 1 2 3 3 1 1 1 3 3 1 1 1 0 0 0 0 3 5 2 3 3 1
10 10 11 12 12 14 14 13 13 13 9 3 2 2 2 1 1 0 1 0 1 0 1 0 0 0 1 1 2 1 2 2 2 0 1 2 3 3 5 5 2 1 3 1 5 6 7 6 6 5 5 0 4 2 2 1 1 2 0 1 1 2 0 1 1 2 3 3 4 6 3 2 2 4 3 4 1 0 1 1 2 1 2 2 2 2 2
9 10 11 12 12 14 14 15 14 15 7 3 3 2 1 1 1 1 1 1 2 1 1 1 2 2 4 3 2 2 2 3 3 1 2 4 2 5 5 5 5 0 1 6 8 8 6 9 9 7 6 1 2 1 2 4 1 0 0 0 0 1 4 2 1 0 2 5 3 3 4 4 3 2 4 3 1 1 0 2 1 2 5 5 4 5 4
8 9 10 12 13 14 15 15 14 15 8 4 4 2 1 1 1 2 1 0 1 1 2 1 3 2 0 2 2 1 1 0 3 4 2 0 1 0 5 7 4 2 5 5 5 6 6 3 2 1 2 0 2 1 1 2 3 3 3 1 1 1 3 1 1 1 2 5 5 3 3 4 1 2 1 3 2 5 3 1 4 4 6 3 5 1 1
9 9 10 13 14 14 16 16 15 16 9 4 3 1 1 2 2 1 1 2 3 1 1 4 5 0 0 1 2 1 1 3 3 2 1 1 1 1 7 4 3 1 2 1 2 5 5 2 3 2 2 3 1 1 5 4 4 2 3 3 2 3 2 1 1 1 1 3 5 4 3 4 6 4 3 4 2 5 6 1 3 4 3 0 0 2 2
11 11 12 13 14 14 16 17 17 16 10 5 4 4 2 2 1 1 2 4 3 3 1 2 1 1 2 3 3 3 4 3 1 4 1 2 0 1 2 3 4 3 3 3 4 4 1 1 1 1 4 5 2 2 4 5 4 1 1 4 8 3 4 2 1 2 1 2 3 2 2 4 5 4 2 0 4 2 2 2 2 5 8 7 4 5 5
12 12 13 14 15 15 16 17 17 16 14 8 5 4 2 2 2 1 2 2 4 2 1 3 3 3 0 4 3 3 1 0 2 0 1 0 2 4 3 3 4 3 7 6 7 3 1 4 1 3 2 4 2 1 1 3 3 5 5 4 2 8 3 2 1 0 1 0 1 5 5 7 2 1 1 5 3 3 4 3 6 8 6 7 4 4 4
12 13 14 15 15 15 16 18 17 17 15 11 4 2 3 3 3 1 1 2 1 1 2 3 2 4 4 1 1 0 1 2 1 2 2 1 0 3 4 2 1 4 1 3 1 5 2 1 1 1 2 2 0 1 2 1 2 4 2 3 4 6 4 3 2 1 4 3 3 4 3 1 5 7 5 1 1 4 4 2 5 3 4 5 7 6 5
14 14 15 15 15 16 17 18 18 17 16 13 5 3 3 4 3 1 1 2 2 2 5 10 3 3 2 1 2 1 2 0 1 1 2 1 2 4 1 0 1 3 6 6 2 4 1 0 1 2 0 1 1 0 0 2 1 2 6 4 4 5 5 6 3 1 2 1 1 1 1 4 5 4 4 0 2 7 4 4 6 6 6 6 8 7 5
16 15 15 15 16 16 17 18 18 17 17 15 6 5 5 6 6 4 2 0 1 6 1 2 3 3 3 0 1 1 2 2 3 1 1 1 1 1 3 1 1 2 2 3 3 1 1 3 1 1 3 2 1 1 0 1 0 1 2 5 5 4 2 2 1 1 2 4 1 4 4 2 0 4 2 1 4 5 3 2 4 2 4 7 7 8 7
16 14 14 15 16 16 17 18 18 18 17 15 8 5 3 6 7 4 1 1 3 4 4 6 4 2 2 4 1 1 2 2 1 1 1 1 2 0 0 1 1 2 1 1 0 3 1 2 1 1 0 2 0 1 1 2 2 2 2 3 2 1 0 1 6 3 3 4 3 2 5 5 4 4 2 3 2 4 2 2 5 2 5 6 7 7 7
15 14 14 15 16 17 17 18 19 19 17 16 6 4 3 5 6 5 3 2 3 3 1 2 0 2 1 2 1 2 1 2 3 2 0 1 1 0 1 0 1 2 6 4 2 2 2 1 0 1 1 1 0 1 1 1 2 0 2 2 1 0 2 1 3 2 4 5 3 6 5 6 2 1 5 3 3 1 2 8 2 6 6 6 6 7 5
15 15 15 15 16 17 18 19 19 18 17 17 10 5 2 5 8 10 7 4 2 3 4 1 3 3 1 1 1 0 0 1 1 2 4 2 2 1 3 1 3 3 1 2 1 1 1 2 2 1 1 2 2 2 0 2 1 3 2 2 3 6 3 3 2 2 2 2 0 3 2 0 4 6 3 0 2 6 6 2 0 3 5 9 5 6 6
15 15 16 16 16 17 18 19 19 18 18 18 12 4 3 2 7 8 3 4 2 1 6 2 0 3 1 3 4 3 4 6 4 1 5 2 1 4 3 4 5 3 3 4 4 3 3 1 2 1 1 2 0 0 1 0 3 2 1 3 2 2 1 1 2 5 2 1 1 1 4 4 7 8 6 5 9 3 6 6 2 1 4 7 6 5 6
16 16 16 16 17 18 18 19 20 18 18 18 12 4 3 2 3 5 5 2 2 4 3 2 1 3 7 6 5 5 6 3 7 2 4 1 0 1 3 2 2 2 1 3 3 1 1 1 1 0 1 1 1 1 2 1 2 1 1 2 1 5 2 6 1 3 4 3 6 5 2 4 9 8 5 6 6 4 7 6 6 6 5 4 6 8 6
16 17 17 17 17 18 18 20 20 20 19 19 13 5 6 2 2 4 7 4 2 3 2 4 2 4 3 6 9 11 10 7 3 2 2 2 0 0 3 1 2 2 1 1 3 4 3 5 4 3 1 2 4 1 0 1 2 1 1 3 1 0 1 1 2 3 3 3 7 2 1 2 6 6 3 1 2 2 4 6 4 5 5 9 8 7 8
15 17 17 17 17 18 19 20 20 20 20 20 13 7 5 2 1 5 3 2 3 2 6 2 1 6 6 4 1 1 3 4 8 6 3 3 2 1 2 2 0 1 0 2 4 2 3 2 1 1 1 3 3 1 3 3 4 3 1 1 1 2 1 1 1 1 2 2 0 1 3 2 4 10 5 2 2 4 5 5 5 5 5 6 5 7 8
16 17 18 18 17 18 19 20 20 20 20 21 12 3 3 1 3 4 6 4 1 3 4 4 5 10 5 2 1 1 6 7 3 6 5 5 5 5 3 1 6 2 3 4 2 6 2 2 0 1 2 4 4 4 1 1 5 2 1 5 1 1 3 1 1 2 2 2 1 3 4 6 5 6 6 7 6 5 5 5 3 3 5 8 9 5 4
16 17 17 18 18 18 19 20 21 20 20 19 13 8 6 3 2 3 3 4 3 4 3 5 5 2 2 3 2 3 1 5 7 7 9 9 7 6 6 2 1 3 4 2 2 2 3 2 2 1 3 3 1 1 3 7 1 1 3 4 4 1 2 2 3 2 5 4 6 5 3 4 5 4 5 7 6 6 5 5 3 2 4 5 3 5 6
16 17 17 18 18 19 20 21 21 20 19 18 11 6 5 3 3 5 5 5 6 3 1 4 5 7 3 3 4 2 1 4 5 6 5 4 4 3 3 2 3 2 2 2 3 4 3 2 2 2 3 2 3 2 2 0 2 2 2 4 0 2 3 1 1 0 2 5 4 3 1 3 5 6 10 9 7 6 5 4 3 4 5 6 6 6 4
16 17 18 18 18 19 20 21 21 20 19 17 8 4 3 4 3 4 2 1 3 3 2 1 3 5 3 4 3 2 2 3 6 7 7 5 4 4 4 4 4 3 1 3 1 1 1 2 5 2 0 1 1 3 0 0 1 1 3 5 5 4 6 6 4 6 5 8 8 6 4 4 7 6 5 6 5 6 7 8 8 8 8 8 9 7 5
16 17 18 18 18 19 20 21 21 19 19 13 5 4 2 5 6 5 4 2 3 5 2 2 2 2 1 2 4 4 1 6 6 7 6 5 5 4 5 5 5 4 3 3 3 3 2 3 2 3 1 4 3 2 1 3 3 6 6 5 5 6 7 9 10 5 4 5 4 6 4 5 4 4 4 4 7 9 10 9 9 10 10 8 8 9 10
16 17 18 18 18 19 20 20 20 20 18 9 5 2 1 4 7 8 7 5 4 3 1 1 1 4 3 2 3 1 1 2 5 5 6 5 4 5 6 5 2 2 2 2 4 3 3 1 1 2 2 0 1 1 1 1 2 8 4 4 7 1 3 5 4 6 3 1 3 6 8 8 2 3 3 4 6 9 9 10 11 9 7 6 8 8 8
16 17 18 18 19 19 20 22 22 22 17 9 6 2 4 3 5 9 10 7 5 3 2 2 4 4 6 2 0 3 3 4 4 5 6 5 5 4 2 4 1 3 2 0 0 1 2 1 1 1 1 1 4 2 4 3 4 4 6 7 8 8 7 8 8 7 5 2 1 1 2 5 3 2 3 3 6 8 6 5 7 9 8 6 8 9 9
16 17 17 18 19 20 22 23 24 22 12 12 9 5 4 3 2 10 13 8 6 3 2 1 2 1 2 4 2 1 3 3 3 2 1 1 2 1 1 2 3 1 2 2 1 2 2 3 2 1 1 2 3 1 2 3 5 10 2 5 5 6 5 4 4 6 4 3 2 1 3 5 4 7 7 7 9 8 11 11 8 7 8 7 6 5 6
17 17 18 18 19 21 23 23 24 16 11 4 7 6 9 6 1 9 12 8 2 2 3 3 2 1 1 4 4 2 3 3 2 2 2 1 3 1 2 1 1 1 1 4 0 2 2 2 1 1 4 0 2 2 3 7 12 5 4 5 5 6 7 6 4 4 4 4 7 6 6 6 7 12 11 2 4 9 9 10 6 2 2 4 5 6 6
18 18 19 19 20 22 23 23 20 13 9 2 4 3 2 6 5 8 8 5 4 1 2 3 1 1 4 4 1 2 1 6 3 4 3 0 1 3 2 1 1 2 1 4 4 1 0 1 2 3 1 1 1 1 5 12 9 6 5 5 5 5 4 3 4 5 7 7 8 9 9 4 1 0 2 4 5 4 4 2 3 4 5 5 7 8 7
19 19 19 21 22 22 24 21 13 8 9 6 2 4 2 10 10 10 6 4 5 1 1 1 1 1 2 1 1 4 1 5 2 3 4 2 1 3 1 2 1 2 4 3 1 2 2 4 5 3 6 1 2 5 8 11 4 4 4 6 5 3 0 2 6 10 8 5 5 8 9 4 3 4 6 6 7 5 6 7 6 6 5 7 8 7 5
19 21 21 22 24 20 13 10 6 7 6 5 3 4 8 8 10 5 1 2 3 4 2 2 2 4 4 3 2 1 1 2 0 2 1 2 1 2 3 4 1 5 0 2 4 1 3 2 3 4 0 3 9 8 9 4 5 6 7 8 8 9 7 9 7 4 2 3 6 5 4 3 6 10 7 6 5 5 7 6 5 5 7 7 8 7 4
22 23 26 25 15 7 6 4 3 4 3 5 5 11 13 10 4 2 2 2 1 2 4 4 2 6 6 4 1 4 3 5 1 2 1 2 5 1 1 2 3 2 1 1 0 3 6 0 1 3 4 8 8 5 7 6 7 7 7 8 8 7 7 6 6 2 1 4 5 4 4 5 6 6 5 6 7 4 5 7 9 10 9 11 9 6 8
25 26 16 10 7 4 3 3 5 6 13 17 13 8 2 3 3 1 2 1 2 1 1 2 4 2 1 1 2 1 2 3 2 4 1 1 3 1 0 1 3 3 4 3 6 5 3 1 3 5 7 8 9 6 8 7 9 9 9 8 7 7 9 8 4 3 4 4 5 5 3 3 6 6 6 9 7 8 12 11 9 9 9 8 8 7 4
25 12 7 4 4 4 4 7 8 14 11 2 2 2 1 0 3 1 3 1 1 1 1 3 5 4 4 3 5 3 3 5 2 1 4 3 2 2 0 3 1 1 1 1 4 3 2 2 1 1 8 5 3 11 12 11 9 9 10 11 9 8 7 7 8 10 10 10 10 8 9 8 7 8 7 8 6 6 5 5 5 7 8 7 6 5 5
11 10 7 6 3 2 5 13 19 11 3 3 0 3 1 0 2 2 0 2 1 1 2 6 3 5 7 9 7 4 0 3 5 4 4 1 0 2 1 1 1 2 2 2 4 0 2 2 1 0 9 5 9 11 6 7 8 10 10 11 10 9 7 9 9 10 10 9 7 6 4 5 5 5 5 7 7 7 5 5 6 6 6 7 6 6 7
7 6 6 6 6 7 8 10 6 2 3 2 1 1 2 1 1 1 2 2 2 3 2 3 2 2 3 2 4 5 3 2 1 2 4 3 2 3 2 1 1 1 1 1 3 2 1 0 1 4 9 6 6 7 5 5 8 9 8 7 7 8 8 9 10 9 8 8 7 6 6 6 7 7 6 5 7 8 8 8 8 8 7 6 6 7 7
6 6 6 9 8 9 8 3 1 2 1 0 2 4 2 1 2 1 1 6 7 2 4 4 3 6 6 10 7 3 1 1 2 1 1 1 1 3 2 0 0 1 2 5 2 2 2 1 2 5 9 7 8 6 4 5 6 6 8 6 7 7 7 8 9 8 8 9 7 7 7 6 6 4 4 6 7 7 7 6 6 7 9 8 6 5 5
17 15 11 8 5 3 1 4 2 1 4 3 3 4 3 4 4 5 3 2 1 3 3 1 1 2 0 3 1 1 3 1 2 0 1 2 0 1 2 0 1 0 4 1 1 2 1 3 3 10 7 6 6 5 6 7 6 5 6 4 5 6 8 9 8 7 7 9 9 8 6 5 5 5 4 4 4 4 4 5 8 8 6 6 6 6 5
12 6 5 0 3 2 3 7 2 2 3 2 6 7 7 5 6 5 3 5 4 3 5 8 7 8 5 3 5 2 0 0 0 1 0 0 2 1 1 1 4 3 1 0 1 3 5 4 9 9 5 3 5 5 7 6 6 5 6 4 4 4 5 5 4 4 5 4 3 2 2 3 1 2 3 4 6 8 7 5 5 5 5 5 5 6 6
7 2 2 2 1 2 3 3 2 3 6 6 4 5 8 15 14 12 9 3 4 6 7 5 7 5 6 4 2 1 1 2 0 2 3 2 1 0 1 2 2 1 2 3 1 2 1 6 5 4 5 6 7 7 6 6 5 5 4 1 1 4 6 7 7 6 6 7 6 4 4 4 4 4 5 6 6 4 7 7 6 5 5 5 6 5 5
6 7 6 5 6 3 2 2 3 4 2 2 6 10 13 2 4 6 3 3 4 3 10 10 8 6 6 2 5 4 1 2 3 3 2 1 2 3 3 0 1 1 1 0 2 6 9 9 4 7 6 7 7 5 4 5 4 2 3 4 5 5 5 6 6 7 7 5 4 5 5 5 5 5 5 6 5 5 5 5 5 7 6 5 6 8 7
3 1 1 1 2 2 1 4 4 2 5 7 8 5 5 5 4 6 4 4 5 5 6 4 5 4 8 3 1 2 1 1 3 1 2 1 2 0 1 1 4 2 3 4 5 5 6 7 6 6 6 6 6 6 5 5 3 4 7 4 5 6 5 5 5 6 5 4 5 5 5 5 5 5 3 3 4 5 5 4 4 3 6 9 9 8 5
4 1 2 2 4 4 7 3 2 1 1 3 4 5 5 5 6 4 2 3 6 7 9 8 6 2 1 1 2 4 3 0 2 2 2 1 1 1 1 1 2 2 3 4 8 5 5 5 6 7 8 7 6 5 5 5 5 6 6 5 6 6 6 6 6 6 4 6 7 7 6 5 5 5 5 7 6 5 5 5 4 4 4 4 4 4 4
2 3 3 2 2 4 4 2 5 6 3 3 6 7 6 7 5 5 5 3 7 7 8 7 4 3 1 1 3 2 2 1 3 3 1 0 2 3 3 3 3 6 6 6 6 5 7 7 7 6 4 4 5 6 7 6 5 6 8 9 9 10 7 8 8 7 6 5 5 5 6 6 5 5 4 3 4 7 6 5 4 4 5 7 7 7 6
3 0 1 3 4 1 2 4 4 6 3 5 6 8 7 6 5 4 4 6 5 6 3 5 1 2 2 2 1 0 1 1 2 1 2 4 3 1 1 5 5 5 3 4 5 6 7 6 3 4 6 6 6 6 7 6 6 7 8 8 6 5 7 8 7 5 6 6 7 7 6 4 5 5 6 9 7 3 3 4 5 6 6 5 5 5 6
0 1 1 2 5 5 9 11 13 10 9 9 9 8 9 9 8 7 4 5 6 5 3 4 4 2 2 1 2 2 3 2 2 4 3 4 2 3 4 9 6 6 5 5 7 7 7 4 5 7 6 6 7 7 7 7 7 8 7 7 7 6 5 5 6 6 6 6 4 4 4 7 9 9 7 4 3 3 3 3 4 5 5 4 5 5 6
2 3 3 2 2 4 6 4 7 4 4 5 6 5 6 7 5 4 4 7 6 7 6 2 3 2 2 4 4 2 1 1 1 1 1 4 3 5 7 8 4 5 7 5 5 6 6 6 6 7 7 7 6 6 6 5 5 4 5 6 6 6 6 6 6 6 6 4 5 7 7 6 4 3 3 4 4 3 4 5 4 4 4 4 5 5 6
Wind_Direction
246 243 237 223 218 227 209 108 42 13 353 35 348 305 3 68 209 254 337 339 88 69 48 294 34 304 240 294 293 243 321 159 228 139 343 71 107 37 53 193 143 236 165 228 185 150 206 162 230 197 223 258 216 230 148 143 67 85 359 31 283 134 66 55 303 308 296 309 323 68 55 118 73 1 51 59 1 248 169 179 186 135 309 64 1 136 252
242 238 231 218 209 205 183 128 78 43 58 71 298 54 106 247 267 317 308 35 91 75 214 341 308 277 317 22 282 300 211 144 63 235 242 139 111 161 175 3 179 28 100 113 239 184 75 216 156 335 178 277 249 261 261 188 192 97 230 133 248 61 309 121 31 360 338 342 350 13 339 52 82 307 319 291 283 47 185 103 59 117 210 163 125 224 245
238 234 225 215 201 194 164 145 135 100 90 90 92 74 236 275 277 235 300 351 79 206 188 138 215 274 280 319 329 336 13 229 205 161 190 121 155 114 248 199 125 62 106 69 33 135 149 278 266 155 182 245 307 303 172 203 210 195 219 132 124 87 197 89 115 112 33 320 330 289 307 286 283 238 326 15 57 30 57 234 321 137 281 116 127 225 269
235 229 221 211 198 183 165 155 156 135 103 90 84 169 16 357 171 303 340 11 35 88 94 115 148 269 274 337 276 168 340 328 310 132 16 160 111 80 136 14 87 65 51 17 10 341 6 116 244 129 291 288 303 242 1 137 238 192 119 97 71 127 94 94 159 152 178 206 208 245 143 11 41 307 8 328 18 347 104 97 97 214 173 146 229 170 150
232 225 218 207 194 179 167 163 158 146 122 93 116 119 107 323 323 171 199 341 43 193 8 108 81 254 156 259 244 274 226 237 325 166 145 241 135 60 46 171 130 298 76 205 286 266 294 349 141 215 199 253 252 313 273 3 142 111 85 47 86 66 43 13 125 127 185 180 203 199 154 343 245 356 330 337 14 349 109 174 230 161 100 301 241 196 142
229 223 215 205 191 177 167 161 157 146 132 114 123 49 186 107 255 105 195 136 247 189 292 118 69 296 93 250 20 255 292 14 179 340 84 110 24 123 330 109 163 182 181 143 142 328 338 345 249 345 211 331 324 31 23 78 317 57 60 25 113 133 110 293 69 327 286 214 243 228 156 173 203 228 246 326 335 38 109 227 213 132 147 214 193 158 150
229 224 214 205 191 177 171 166 156 146 138 125 110 50 274 169 281 239 281 179 247 160 189 177 167 218 211 261 193 285 252 263 223 182 15 32 36 99 222 270 248 169 166 123 178 167 68 307 292 194 207 28 358 35 1 26 16 73 36 33 124 90 334 197 85 317 329 314 320 23 76 340 225 225 221 244 107 288 201 280 211 173 189 189 158 170 191
231 226 215 205 192 178 173 170 156 149 136 116 71 201 144 264 149 280 356 79 164 229 52 121 76 288 215 200 248 179 205 227 268 309 127 131 293 63 147 236 215 169 159 131 148 213 190 189 254 242 141 14 67 175 189 194 345 23 141 97 346 102 277 89 52 48 308 295 318 1 41 325 306 279 212 187 175 28 229 138 4 100 62 59 123 137 226
226 227 218 208 196 180 177 171 158 154 143 64 137 270 191 242 203 195 152 281 277 37 41 101 131 142 318 200 273 119 220 230 195 236 170 155 183 177 207 195 130 95 134 175 238 230 202 197 221 184 154 123 219 130 277 148 341 352 23 17 342 73 231 54 75 43 314 335 347 311 326 324 288 295 266 193 128 135 218 154 213 118 166 122 90 114 249
227 224 220 213 199 184 176 174 164 166 168 106 150 254 210 289 288 88 111 196 297 190 83 48 92 253 231 176 238 163 249 220 138 80 267 215 190 183 180 173 129 30 152 231 230 234 195 209 217 184 197 143 185 218 167 152 172 177 135 249 149 125 134 118 94 57 275 295 306 315 345 5 13 328 313 183 200 144 281 287 224 206 145 116 144 227 216
231 231 227 219 206 189 179 177 168 169 158 154 163 208 115 72 293 0 45 113 314 123 121 1 133 226 130 274 290 291 284 231 206 138 263 28 1 198 134 145 141 210 197 223 225 208 193 172 157 153 120 118 171 226 127 152 173 158 156 75 11 70 100 124 161 110 258 307 333 6 46 37 268 234 213 161 183 178 160 222 208 197 151 193 182 198 237
231 238 233 225 212 194 183 178 172 174 176 169 118 183 128 117 107 97 88 156 250 302 159 206 176 276 135 280 223 231 271 194 224 169 199 243 160 109 94 84 92 335 242 247 76 91 101 90 44 69 78 20 11 179 164 196 247 216 157 141 143 124 79 126 140 93 293 317 5 40 19 244 241 295 263 220 205 155 174 234 231 208 224 177 257 258 223
229 236 239 230 219 199 188 182 177 177 180 145 148 186 113 90 129 173 150 124 227 173 146 269 221 220 254 301 308 252 241 243 316 232 235 154 123 247 202 156 159 235 137 125 63 49 68 276 332 190 279 342 346 56 193 211 243 210 177 132 123 162 115 174 35 126 92 46 35 46 255 237 272 291 343 236 99 115 89 334 296 218 201 186 202 221 212
222 228 236 233 220 204 191 186 180 180 180 160 162 188 138 138 156 162 148 112 264 246 227 302 302 291 189 244 223 287 334 22 332 229 223 315 179 218 256 191 205 172 145 106 61 71 7 45 2 18 308 6 5 20 264 245 211 162 174 205 134 142 91 110 115 262 207 156 138 229 299 327 356 33 233 183 167 172 162 205 270 218 192 173 195 210 221
228 225 233 233 221 207 195 188 183 181 176 171 145 152 169 159 145 233 269 96 206 296 180 194 237 211 172 240 192 13 16 308 31 214 287 319 217 220 195 236 125 121 91 82 27 44 124 106 24 21 329 33 143 253 313 139 359 14 284 158 134 148 147 222 122 279 120 125 0 344 19 320 277 242 270 297 163 120 141 93 291 284 225 190 156 184 198
229 224 230 232 220 208 197 188 185 180 175 163 159 165 190 186 163 229 190 160 128 291 256 214 170 135 155 225 177 167 210 132 198 356 353 329 264 324 334 136 115 111 61 70 93 97 66 28 221 104 214 212 229 42 278 341 63 357 39 78 84 23 78 132 139 147 78 72 159 226 200 252 214 254 250 288 139 130 117 58 305 267 192 186 162 177 196
230 222 225 229 220 208 198 190 184 179 172 163 161 168 216 168 176 176 171 290 164 215 246 175 147 112 90 62 358 275 181 178 165 202 264 303 279 266 296 337 28 68 94 77 13 76 35 49 109 165 270 196 105 248 211 81 99 2 27 46 50 53 3 57 48 96 188 133 122 262 202 229 294 233 266 217 163 100 63 17 285 257 201 176 163 173 187
226 219 224 227 219 207 198 190 184 180 175 169 153 161 193 174 187 148 95 135 133 288 256 195 126 101 169 186 176 225 95 50 34 31 133 264 328 338 330 16 75 358 98 102 76 68 72 122 173 173 248 246 202 89 250 190 154 203 176 159 156 106 2 62 201 180 185 170 259 320 301 270 255 248 209 159 161 78 71 212 242 239 174 189 173 181 188
220 218 226 227 218 207 198 190 183 179 175 169 144 61 249 175 185 198 117 94 105 209 271 280 234 167 208 123 112 174 187 181 164 112 247 20 214 228 129 204 128 183 3 143 79 138 140 260 73 125 148 292 55 217 221 50 234 338 99 76 49 25 113 334 76 117 181 194 174 227 243 242 186 338 141 194 101 82 205 236 209 148 175 198 184 179 188
220 216 221 224 217 206 197 189 182 175 170 167 156 170 220 170 188 190 167 192 143 220 277 229 154 214 224 172 167 187 186 22 62 127 153 176 272 63 51 91 318 82 22 74 146 205 126 218 213 150 257 228 251 171 73 256 175 167 176 198 144 197 135 208 175 173 75 46 57 7 11 288 136 124 70 58 116 227 207 151 217 188 167 164 207 185 196
221 217 219 220 216 206 196 188 183 174 169 168 162 143 251 209 180 205 208 125 128 278 294 286 308 253 204 227 213 193 156 203 175 178 226 166 204 94 135 200 212 149 197 156 172 224 174 220 231 182 202 133 268 52 216 325 326 263 146 190 202 204 125 253 265 182 155 127 151 199 214 203 192 148 173 219 207 187 169 143 145 212 160 174 178 217 195
225 220 219 220 214 206 195 187 182 172 167 166 157 119 220 225 188 195 191 143 210 203 208 244 267 243 230 219 210 197 197 190 203 161 137 169 319 190 196 134 192 162 206 123 63 14 307 207 73 81 203 234 19 187 154 70 286 262 336 93 314 222 179 178 136 211 139 199 213 249 226 202 198 194 195 215 211 151 176 159 163 162 222 183 166 205 206
225 219 217 216 212 204 192 185 180 174 168 164 160 162 189 169 200 171 148 179 285 296 315 324 328 268 258 246 227 213 220 218 168 134 138 115 209 172 145 146 271 216 108 118 189 163 192 135 213 163 131 192 174 154 21 142 233 287 195 233 203 275 188 191 101 248 260 256 212 246 274 229 246 252 205 244 240 230 159 156 159 234 179 169 188 204 198
230 221 214 212 209 202 191 184 179 175 171 170 169 151 193 194 233 132 128 64 158 312 317 334 87 280 238 271 331 305 210 234 207 210 159 137 144 287 324 249 186 63 312 229 168 144 193 120 217 133 241 243 103 114 164 280 237 203 117 301 286 261 158 127 213 301 68 259 314 199 242 274 231 228 230 252 202 205 180 187 198 190 181 194 218 190 189
229 222 211 208 206 199 190 182 178 175 173 171 165 135 76 204 207 196 161 162 189 131 222 316 245 236 233 237 337 201 220 204 173 183 173 176 169 159 196 214 179 162 225 194 116 68 47 119 190 139 200 260 142 258 228 128 294 158 262 271 349 338 179 103 217 135 151 229 256 246 257 257 251 213 215 239 235 218 206 215 204 190 196 191 198 176 185
227 216 208 205 203 196 187 181 177 175 172 172 163 170 178 192 129 125 68 69 113 119 176 253 271 303 325 334 225 211 179 157 182 181 190 194 190 188 158 108 53 28 96 74 130 143 134 68 99 124 156 278 139 173 207 202 177 164 172 225 195 184 120 221 163 173 275 305 287 274 303 297 271 248 242 228 203 196 208 217 223 170 194 223 211 192 187
224 212 205 202 200 194 185 180 176 174 171 168 168 166 175 198 169 187 168 165 123 327 70 246 271 293 358 298 259 309 188 157 165 174 182 186 165 126 115 124 119 68 88 52 34 121 71 99 127 220 172 231 160 195 152 177 170 159 226 267 258 102 215 207 103 9 294 218 243 140 105 285 290 252 225 220 208 186 189 175 207 205 209 211 203 225 225
222 210 201 198 197 191 182 177 174 170 167 162 159 155 189 213 203 215 203 213 172 177 179 250 299 271 279 270 259 227 241 161 164 165 173 178 156 148 151 151 122 115 107 123 237 133 101 132 244 231 141 290 110 270 298 280 70 331 235 244 187 173 207 142 169 160 236 249 233 209 179 208 239 237 233 210 174 162 166 192 206 214 213 200 195 205 226
218 205 197 194 192 185 179 173 167 163 156 147 128 132 252 243 247 227 210 188 105 105 105 224 307 2 295 262 330 323 274 153 158 161 156 155 153 156 159 161 162 144 88 73 106 108 145 214 157 145 192 208 121 267 53 228 193 231 231 213 185 230 165 174 196 179 250 228 220 182 169 219 255 254 232 201 178 174 193 205 206 206 205 197 198 198 196
214 203 194 190 188 181 173 166 157 153 147 132 127 118 183 276 201 213 192 187 190 117 97 25 8 262 312 331 286 244 94 119 137 138 146 141 141 156 162 137 114 131 117 157 158 211 228 165 267 285 286 301 186 199 172 199 225 248 254 238 227 267 221 236 170 156 221 209 180 195 212 241 273 285 263 210 191 181 190 208 211 215 218 184 199 215 219
209 199 190 186 182 175 164 157 155 152 144 145 145 120 151 222 216 175 170 179 185 112 132 118 228 297 327 262 213 246 174 132 138 156 164 164 158 148 173 89 72 143 137 82 57 229 132 260 146 249 337 168 119 139 193 149 252 294 254 209 210 211 212 223 213 220 221 221 179 217 261 251 277 325 292 224 201 198 215 231 222 211 206 182 206 212 220
204 192 185 181 175 165 159 157 156 154 155 164 180 174 192 192 254 154 154 159 147 87 105 101 335 329 248 310 275 250 136 150 107 92 61 77 145 93 89 168 202 163 139 146 181 99 234 214 143 239 157 210 113 115 106 162 222 250 201 219 236 227 224 227 226 238 245 211 113 28 287 272 225 192 231 212 197 197 201 218 215 209 201 200 216 223 234
200 187 179 174 167 161 159 158 156 158 171 178 323 279 257 243 114 147 139 144 84 120 116 93 205 250 300 247 313 292 148 73 69 91 185 316 165 99 136 15 83 74 274 95 246 198 206 131 135 200 247 2 153 167 183 224 231 215 171 211 217 216 219 223 225 237 231 205 179 193 224 218 220 220 230 215 177 190 200 219 226 150 147 189 224 239 249
191 180 171 165 160 157 156 155 150 128 84 73 254 266 256 187 137 146 136 108 100 128 81 122 131 179 246 314 51 270 159 144 199 152 172 301 179 95 208 63 355 139 269 175 253 78 323 94 186 217 2 239 83 105 252 246 237 229 221 236 233 246 259 283 262 257 239 218 213 224 237 247 297 196 167 207 229 220 208 195 134 167 204 206 227 230 232
181 169 162 156 154 151 148 142 137 155 179 180 279 265 170 154 153 163 149 122 107 142 137 287 114 96 323 346 11 268 161 112 175 192 153 230 40 160 193 91 348 157 270 85 59 180 163 217 163 120 232 81 122 227 238 250 236 208 241 247 245 199 143 275 265 234 238 213 202 229 245 257 270 253 233 225 220 190 173 198 192 178 193 222 226 237 225
171 158 151 147 141 138 132 133 142 152 186 186 211 175 143 135 128 119 104 110 115 144 126 207 131 202 165 185 209 252 125 122 54 74 133 130 54 24 101 114 146 241 159 134 209 148 199 227 121 251 136 158 226 208 235 195 221 220 213 224 221 176 199 198 223 234 217 191 207 235 248 215 211 235 235 236 225 195 193 187 190 186 203 220 233 237 223
158 148 138 131 130 127 145 135 145 193 189 137 132 116 119 115 60 35 21 37 14 94 153 153 163 224 176 214 258 280 119 183 276 76 106 129 189 292 72 67 207 276 83 344 22 177 247 62 146 216 196 210 242 217 233 208 210 221 226 224 227 207 224 239 233 175 215 280 284 274 262 254 255 255 254 245 233 190 172 200 191 181 200 219 226 221 222
140 136 134 141 135 130 124 180 168 180 143 133 147 122 21 17 134 13 22 71 277 52 341 113 221 217 57 113 216 248 126 223 48 134 221 225 114 176 259 142 226 143 229 218 235 181 110 139 212 218 256 240 254 241 233 225 229 228 235 237 228 211 210 223 192 163 214 267 293 276 278 265 257 250 221 238 216 197 209 208 196 197 202 208 213 213 216
140 139 130 160 136 145 173 162 160 154 127 69 45 75 125 13 100 147 188 170 56 226 254 177 219 152 158 196 271 301 164 161 140 72 156 252 148 252 136 169 272 83 301 8 289 163 213 273 300 277 265 252 256 248 233 227 235 233 232 233 232 226 208 210 189 192 198 209 214 201 182 198 218 242 216 230 231 221 221 206 200 197 197 202 208 202 209
147 154 150 139 115 162 110 131 142 130 87 110 342 103 125 217 130 194 67 131 216 273 145 223 188 179 189 195 188 259 288 105 150 195 184 266 320 151 231 103 255 123 234 167 244 18 137 224 269 57 273 233 234 252 238 208 222 237 228 236 234 233 214 206 212 216 216 228 229 235 228 233 224 231 216 211 210 209 209 200 201 192 186 199 198 186 199
151 119 133 130 138 123 129 137 114 51 94 100 91 27 91 144 214 144 136 195 186 222 187 173 139 204 234 162 155 206 285 87 128 135 128 167 235 96 95 201 233 161 244 231 273 107 100 86 267 197 247 225 219 245 235 215 224 242 239 230 228 227 217 217 219 212 210 233 246 253 246 235 235 233 223 199 192 200 199 188 184 190 188 181 180 203 215
162 142 126 111 104 112 119 89 81 106 28 176 141 161 153 125 95 113 189 182 206 202 257 153 198 178 202 184 185 159 255 188 124 110 120 168 241 150 206 233 31 139 233 234 148 81 94 219 249 266 251 250 250 259 239 244 248 238 248 223 223 221 215 213 217 219 206 211 223 231 236 223 225 222 197 181 191 192 181 181 186 182 187 199 197 203 201
92 101 107 105 114 135 105 133 218 127 159 166 154 164 157 176 189 165 194 238 255 170 242 134 194 144 331 103 60 241 188 209 156 187 103 198 30 58 100 49 83 194 236 329 103 92 172 225 234 251 247 254 248 247 242 230 252 255 254 224 218 215 205 205 205 212 203 201 212 215 209 193 209 215 196 176 161 155 187 196 184 182 193 186 199 208 211
127 126 104 84 112 177 136 171 174 154 205 206 165 165 142 180 193 184 198 215 176 198 198 161 190 154 173 220 137 181 59 346 55 82 30 353 105 151 119 192 211 242 47 66 87 170 216 222 216 239 249 253 274 254 249 250 238 261 288 267 228 201 185 179 166 169 197 204 207 192 156 173 171 142 150 168 177 176 188 202 209 189 180 170 194 217 220
144 128 108 126 108 165 131 178 167 215 185 173 159 172 176 199 194 182 194 206 160 192 168 154 147 159 133 200 58 328 132 171 332 129 213 150 124 205 140 240 237 83 173 226 263 293 348 260 251 259 266 257 252 247 235 242 235 227 243 290 151 167 159 166 182 184 175 183 187 156 174 186 154 165 179 191 201 195 168 187 199 175 179 187 210 230 229
155 156 151 152 147 185 204 126 139 184 227 127 198 198 195 213 102 172 220 160 146 150 163 172 152 130 130 200 145 184 156 117 122 211 163 99 125 221 225 141 88 187 338 12 215 216 218 242 226 229 227 226 237 250 249 250 252 235 162 189 211 187 186 172 175 180 183 177 167 174 188 173 172 162 196 209 197 200 217 212 177 181 181 182 209 225 228
93 83 132 102 105 151 168 172 184 201 158 203 197 126 129 169 179 156 180 171 159 152 119 114 129 155 143 192 106 6 51 107 159 234 86 123 186 239 28 137 224 179 190 227 223 234 243 246 239 238 239 246 251 250 249 255 238 210 221 208 173 185 178 184 183 187 199 170 170 183 183 187 195 198 185 180 222 225 230 221 207 177 171 199 214 223 224
132 172 116 158 187 155 161 208 189 103 353 118 137 136 142 136 123 169 205 145 127 132 135 138 124 110 67 300 83 165 179 193 130 253 190 188 47 81 115 202 235 233 204 197 232 207 232 240 223 226 229 225 227 236 239 235 228 213 212 201 189 187 191 189 197 213 175 175 189 193 197 198 193 186 188 203 216 229 220 221 210 190 205 239 257 254 237
135 137 155 148 146 136 155 192 159 180 177 135 146 132 130 139 159 154 162 127 132 155 155 137 170 114 169 194 123 112 202 237 159 212 87 45 182 196 166 220 191 234 243 191 227 207 224 235 227 224 243 243 231 219 232 223 208 199 198 194 194 195 191 195 203 201 192 192 190 189 204 207 188 190 204 208 230 250 230 213 204 206 207 210 221 225 226
114 324 32 105 96 349 155 106 143 183 156 161 143 155 152 154 148 178 171 129 135 121 79 50 72 93 185 138 122 127 230 206 181 102 154 200 203 194 139 236 215 197 246 232 225 244 240 243 211 235 240 234 237 220 228 232 208 207 207 203 191 173 190 200 207 197 194 196 195 205 201 174 189 197 195 209 216 221 202 200 209 210 216 215 211 217 224
2 127 195 175 135 171 155 179 191 183 173 183 174 174 167 176 172 185 217 134 129 127 123 154 177 125 109 59 116 157 228 165 115 197 166 198 166 148 201 228 227 197 229 226 220 235 242 227 187 231 248 248 237 231 224 220 205 207 197 185 187 188 197 204 208 202 208 212 200 171 181 203 207 203 213 196 182 195 206 227 210 203 206 205 200 203 217
118 135 180 186 126 166 177 46 52 78 113 132 149 192 153 175 176 170 166 120 140 157 194 169 113 129 136 187 202 178 54 55 165 108 205 250 166 195 219 217 216 215 220 227 249 236 235 236 215 223 231 243 247 235 222 207 192 182 184 187 177 180 194 202 208 209 210 203 197 203 216 217 202 187 154 151 165 170 194 226 223 203 205 203 206 208 210